New York, NY

6:19 PM EST on November 13, 2019 (GMT -0500)
La Guardia

Weather History for KLGA - August, 2019

Change the Weather History Date:

Sunday, August 18, 2019

  Actual Average Record
Temperature  
Mean Temperature 83 °F 76 °F  
Max Temperature 91 °F 84 °F 95 °F (2002)
Min Temperature 74 °F 69 °F 59 °F (1941)
Degree Days  
Heating Degree Days 0 0  
Month to date heating degree days 0 0  
Since 1 June heating degree days 4 16  
Since 1 July heating degree days 0 0  
Cooling Degree Days 18 11  
Month to date cooling degree days 255 218  
Year to date cooling degree days 1080 900  
Since 1 June cooling degree days 1018 834  
Growing Degree Days 32 (Base 50)    
Moisture  
Dew Point 71 °F    
Average Humidity 75    
Maximum Humidity 94    
Minimum Humidity 56    
Precipitation  
Precipitation 0.59 in 0.13 in 1.18 in (1955)
Month to date precipitation 1.45 2.51  
Year to date precipitation 34.15 28.64  
Snow  
Snow 0.00 in 0.00 in - ()
Month to date snowfall 0.0 0.0  
Since 1 July snowfall 0.0 0.0  
Snow Depth 0.00 in    
Sea Level Pressure  
Sea Level Pressure 29.99 in    
Wind  
Wind Speed 7 mph (ESE)    
Max Wind Speed 22 mph    
Max Gust Speed 29 mph    
Visibility 8 miles    
Events Rain , Thunderstorm    
T = Trace of Precipitation, MM = Missing Value Source: NWS Daily Summary

Daily Weather History Graph

Daily Weather History Graph

Search for Another Location

Airport or City:

Astronomy

Aug. 18, 2019 Rise Set
Actual Time 6:08 AM EDT 7:49 PM EDT
Civil Twilight 5:39 AM EDT 8:18 PM EDT
Nautical Twilight 5:03 AM EDT 8:53 PM EDT
Astronomical Twilight 4:26 AM EDT 9:31 PM EDT
Moon 9:42 PM EDT (8/18) 8:51 AM EDT (8/18)
Length of Visible Light 14h 39m
Length of Day
13h 41m
Waning Gibbous, 91% of the Moon is Illuminated
Aug 18
Waning Gibbous
Aug 23
Last Quarter
Aug 30
New
Sep 5
First Quarter
Sep 14
Full

Hourly Weather History & Observations

Time (EDT) Temp. Heat Index Dew Point Humidity Pressure Visibility Wind Dir Wind Speed Gust Speed Precip Events Conditions
12:51 AM 77.0 °F - 73.0 °F 88% 29.98 in 10.0 mi WSW 3.5 mph - N/A   Overcast
1:51 AM 75.9 °F - 73.0 °F 91% 29.99 in 9.0 mi ENE 9.2 mph - 0.16 in   Overcast
2:06 AM 75.0 °F - 73.0 °F 94% 29.98 in 9.0 mi NE 8.1 mph - N/A   Overcast
2:35 AM 75.0 °F - 73.0 °F 94% 29.98 in 9.0 mi East 3.5 mph - N/A   Overcast
2:51 AM 75.9 °F - 73.0 °F 91% 29.98 in 9.0 mi East 4.6 mph - N/A   Mostly Cloudy
3:51 AM 75.9 °F - 73.0 °F 91% 29.98 in 9.0 mi NE 3.5 mph - N/A   Overcast
4:51 AM 75.0 °F - 72.0 °F 90% 29.98 in 10.0 mi NE 5.8 mph - N/A   Overcast
5:51 AM 75.0 °F - 71.1 °F 87% 29.99 in 10.0 mi East 4.6 mph - N/A   Overcast
6:51 AM 75.0 °F - 71.1 °F 87% 30.00 in 6.0 mi ENE 5.8 mph - N/A   Overcast
6:57 AM 75.0 °F - 71.1 °F 87% 30.00 in 6.0 mi NE 5.8 mph - N/A   Mostly Cloudy
7:51 AM 75.0 °F - 71.1 °F 87% 30.02 in 6.0 mi NE 6.9 mph - N/A   Mostly Cloudy
7:59 AM 75.0 °F - 71.1 °F 87% 30.02 in 6.0 mi NE 6.9 mph - N/A   Mostly Cloudy
8:47 AM 78.8 °F - 73.4 °F 83% 30.02 in 6.0 mi SSE 4.6 mph - N/A   Haze
8:51 AM 79.0 °F - 73.0 °F 82% 30.02 in 6.0 mi Variable 5.8 mph - N/A   Haze
9:51 AM 80.1 °F 84.5 °F 73.9 °F 81% 30.01 in 8.0 mi SSE 3.5 mph - N/A   Mostly Cloudy
10:47 AM 82.4 °F 88.2 °F 73.4 °F 74% 30.02 in 8.0 mi NE 4.6 mph - N/A   Mostly Cloudy
10:51 AM 82.9 °F 89.4 °F 73.9 °F 74% 30.01 in 8.0 mi ENE 5.8 mph - N/A   Mostly Cloudy
11:48 AM 84.2 °F 90.9 °F 73.4 °F 70% 30.00 in 8.0 mi NE 4.6 mph - N/A   Mostly Cloudy
11:51 AM 84.9 °F 91.4 °F 73.0 °F 67% 30.00 in 8.0 mi NE 4.6 mph - N/A   Mostly Cloudy
12:51 PM 88.0 °F 95.6 °F 73.0 °F 61% 29.99 in 8.0 mi SSW 9.2 mph - N/A   Mostly Cloudy
1:51 PM 90.0 °F 96.4 °F 71.1 °F 54% 29.99 in 8.0 mi SSW 10.4 mph 18.4 mph N/A   Mostly Cloudy
2:51 PM 90.0 °F 97.9 °F 73.0 °F 57% 29.97 in 10.0 mi South 15.0 mph - N/A   Mostly Cloudy
3:51 PM 89.1 °F 96.0 °F 72.0 °F 57% 29.96 in 10.0 mi South 13.8 mph - N/A   Overcast
4:48 PM 86.0 °F 91.8 °F 71.6 °F 62% 29.97 in 10.0 mi South 17.3 mph 24.2 mph N/A Thunderstorm Overcast
4:51 PM 86.0 °F 92.2 °F 72.0 °F 63% 29.97 in 10.0 mi South 16.1 mph - N/A Thunderstorm Overcast
5:03 PM 86.0 °F 93.0 °F 73.0 °F 65% 29.96 in 10.0 mi South 16.1 mph 21.9 mph N/A Thunderstorm Thunderstorm
5:24 PM 84.9 °F 92.1 °F 73.9 °F 69% 29.97 in 2.0 mi WSW 6.9 mph - N/A Thunderstorm Unknown
5:31 PM 80.1 °F 82.3 °F 66.9 °F 64% 29.97 in 7.0 mi NW 8.1 mph - N/A Thunderstorm Thunderstorm
5:51 PM 82.9 °F 90.2 °F 75.0 °F 77% 29.96 in 7.0 mi SSW 9.2 mph - 0.00 in Rain , Thunderstorm Light Thunderstorms and Rain
6:13 PM 80.1 °F 83.6 °F 71.1 °F 74% 29.98 in 1.2 mi SW 17.3 mph 25.3 mph 0.04 in Rain , Thunderstorm Heavy Thunderstorms and Rain
6:15 PM 79.0 °F - 72.0 °F 79% 29.98 in 0.5 mi SW 16.1 mph 25.3 mph 0.12 in Rain , Thunderstorm Heavy Thunderstorms and Rain
6:35 PM 79.0 °F - 70.0 °F 74% 29.96 in 7.0 mi Variable 4.6 mph - 0.42 in Rain , Thunderstorm Light Thunderstorms and Rain
6:44 PM 79.0 °F - 70.0 °F 74% 29.95 in 10.0 mi South 5.8 mph - 0.43 in Rain , Thunderstorm Light Rain
6:51 PM 80.1 °F 83.6 °F 71.1 °F 74% 29.96 in 10.0 mi SSW 8.1 mph - 0.43 in Rain Light Rain
7:51 PM 81.0 °F 85.8 °F 73.0 °F 77% 29.98 in 10.0 mi SW 3.5 mph - 0.00 in   Mostly Cloudy
8:51 PM 78.1 °F - 63.0 °F 60% 30.00 in 10.0 mi NNW 8.1 mph - N/A   Mostly Cloudy
9:51 PM 78.1 °F - 62.1 °F 58% 30.00 in 10.0 mi North 3.5 mph - N/A   Mostly Cloudy
10:51 PM 77.0 °F - 62.1 °F 60% 29.98 in 10.0 mi East 5.8 mph - N/A   Mostly Cloudy
11:51 PM 75.9 °F - 63.0 °F 64% 29.97 in 10.0 mi Calm Calm - N/A   Scattered Clouds